Regional Weather Roundup
Issued by NWS State College, PA

Home | Current Version | Previous Version | Text Only | Print | Product List | Glossary On
Versions: 1 2 3 4 5 6 7 8 9 10 11 12 13 14 15 16 17 18 19 20 21 22 23 24 25 26 27 28 29 30 31 32 33 34 35 36 37 38 39 40 41 42 43 44 45 46 47 48 49 50
000
ASUS41 KCTP 300510
RWRCTP

REGIONAL WEATHER ROUNDUP
NATIONAL WEATHER SERVICE STATE COLLEGE PA
100 AM EDT THU MAR 30 2017

Note: "fair" indicates few or no clouds below 12,000 feet with no
significant weather and/or obstructions to visibility.

* = STATION THAT DOES NOT REPORT PRECIPITATION /E.G. RAIN...SNOW...ETC/
    THUNDER OR FOG.

PAZ002>004-007>009-013>016-020>023-029>032-300600-
WESTERN PENNSYLVANIA

CITY           SKY/WX    TMP DP  RH WIND       PRES   REMARKS
ERIE           CLOUDY    43  29  57 NE7       30.20R
MEADVILLE      PTCLDY    43  27  53 E7        30.16R
FRANKLIN*      MOCLDY    43  27  52 E9        30.15R
NEW CASTLE     FAIR      46  30  53 NE7       30.14R
BEAVER COUNTY  NOT AVBL
BUTLER*        CLOUDY    45  30  57 NE8       30.12F
PITTSBURGH INT CLOUDY    48  29  47 E5        30.11F
PITTSBURGH     PTCLDY    47  27  45 E7        30.08F
INDIANA*       CLEAR     46  28  49 E8        30.15F
LATROBE        PTCLDY    46  30  53 E7        30.12F
WASHINGTON CO* CLOUDY    43  34  70 E5        30.09F
$$

PAZ004>006-010>012-017>019-024>028-033>037-041-042-045-046-049>053-300600-
CENTRAL PENNSYLVANIA

CITY           SKY/WX    TMP DP  RH WIND       PRES   REMARKS
BRADFORD       CLOUDY    35  26  69 E9        30.15F
DUBOIS         MOCLDY    40  25  55 E7        30.12F
CLEARFIELD     MOCLDY    40  28  62 E10       30.15F
JOHNSTOWN      CLOUDY    42  27  55 E7        30.11F
ALTOONA        CLOUDY    43  30  60 NE8       30.16F
STATE COLLEGE  MOCLDY    39  27  62 E10       30.18F
WILLIAMSPORT   PTCLDY    39  24  55 N3        30.24F
SELINSGROVE    MOCLDY    40  27  59 N7        30.24F
FT INDIANTOWN  CLOUDY    41  26  54 NE8       30.20F
CAPITAL CITY   CLOUDY    47  25  42 NE9       30.21F
HARRISBURG     CLOUDY    45  27  49 NE5       30.22S
YORK           CLEAR     43  29  57 E9        30.20S
$$

PAZ038>040-043-044-047-048-054-055-060>062-067>071-300600-
EASTERN PENNSYLVANIA

CITY           SKY/WX    TMP DP  RH WIND       PRES   REMARKS
SCRANTON       CLEAR     35  25  66 NE7       30.22F
MOUNT POCONO   CLEAR     30  22  72 N6        30.17F
ALLENTOWN      PTCLDY    39  23  52 N6        30.23F
QUAKERTOWN*    CLEAR     39  25  56 NE8       30.23F
READING        CLEAR     42  26  53 NE10      30.22F
LANCASTER      CLEAR     41  28  60 E5        30.20S
COATESVILLE    CLEAR     43  25  49 N13G20    30.20F
POTTSTOWN      CLEAR     39  24  55 N3        30.24F
BLUE BELL      CLEAR     41  27  56 CALM      30.23S
DOYLESTOWN     CLEAR     39  25  57 N6        30.22F
WILLOW GROVE   NOT AVBL
NORTH PHILA    CLEAR     43  25  49 N8        30.24F
PHILADELPHIA   PTCLDY    46  25  43 N18       30.22F
$$



USA.gov is the U.S. government's official web portal to all federal, state and local government web resources and services.